Dewpoint
-4 -9 -6 -3 -5 -9 -13 -15 -7 -3 -4 -4 5 4 3 4 5 8 12 12 9 9 0 -1 -2 -1 -0 0 0 2 3 0 0 -1 -3 -4 -2 -1 -1 -0 -1 -2 -2 -3 -5 -4 -2 -0 1
-6 -7 -3 -6 -8 -11 -15 -12 -7 -5 -6 -5 -4 6 5 4 7 12 13 10 10 2 0 0 -0 -1 -2 -3 -5 -6 -5 -5 -5 -5 -6 -5 -4 -2 -2 -3 -3 -3 -4 -4 -4 -4 -3 -3 -2
-9 -8 -6 -9 -12 -13 -15 -10 -5 -6 -4 -0 -0 6 5 5 10 11 12 9 11 6 1 1 1 1 -0 -2 -5 -6 -6 -6 -6 -6 -6 -5 -4 -3 -2 -3 -4 -4 -5 -4 -4 -3 -3 -3 1
-4 -3 -6 -7 -12 -14 -10 -5 -6 -6 -6 1 3 5 7 11 11 11 6 8 12 8 5 2 3 2 1 -0 -3 -5 -6 -6 -6 -6 -5 -5 -4 -4 -4 -4 -5 -6 -5 -4 -4 -3 -3 -1 4
-3 -6 -7 -8 -11 -11 -8 -5 -7 -6 -7 -6 -3 4 6 12 7 9 4 10 8 7 6 3 4 4 3 2 0 -3 -5 -6 -6 -6 -5 -5 -5 -5 -5 -5 -6 -6 -5 -5 -4 -3 -2 1 4
-5 -6 -8 -10 -13 -9 -9 -8 -7 -7 -7 -5 -2 4 7 13 11 11 8 9 9 1 1 3 4 5 5 5 4 2 -2 -5 -6 -5 -5 -5 -5 -5 -5 -5 -6 -6 -6 -5 -5 -4 -2 -1 3
-4 -6 -10 -13 -15 -13 -11 -9 -9 -9 -7 -6 -2 5 10 13 14 13 11 11 11 7 2 4 5 6 6 6 6 5 4 0 -3 -5 -5 -4 -4 -4 -4 -4 -5 -5 -5 -5 -4 -4 -4 -2 -1
-4 -6 -7 -8 -10 -11 -9 -8 -8 -8 -7 -3 6 7 9 12 14 14 13 12 11 3 3 3 6 7 7 7 7 7 6 5 2 -1 -3 -4 -3 -3 -3 -3 -4 -4 -4 -4 -5 -4 -4 -4 -3
-4 -4 -8 -8 -9 -11 -9 -10 -8 -6 -6 -5 2 5 9 14 14 15 14 14 11 4 3 4 6 7 7 7 8 8 7 7 5 2 0 -1 -2 -2 -2 -2 -2 -2 -3 -3 -3 -4 -4 -4 -4
-4 -6 -9 -11 -10 -10 -10 -9 -7 -6 -7 -6 -4 -1 9 14 14 14 14 14 13 7 4 3 4 6 8 11 8 8 8 8 8 6 3 2 1 0 -0 -1 -1 -1 -1 -1 -1 -1 -2 -2 1
-4 -5 -9 -6 -6 -8 -9 -9 -8 -8 -9 -7 -5 -5 -1 11 13 13 12 12 13 12 9 3 3 5 7 12 10 10 10 10 9 8 7 4 4 4 2 2 2 1 1 0 0 1 1 3 7
-3 -6 -7 -7 -6 -5 -6 -7 -8 -8 -9 -7 -7 -6 -5 3 12 12 11 10 11 7 11 6 4 4 4 11 11 12 13 12 12 10 8 8 5 5 5 10 7 5 4 5 2 4 7 3 3
-3 -5 -6 -5 -6 -6 -7 -8 -8 -9 -9 -8 -8 -7 -7 -1 6 12 11 10 10 10 11 5 2 2 4 6 12 13 13 13 13 12 9 9 8 6 6 11 11 10 10 8 6 9 5 5 5
-8 -6 -6 -5 -5 -5 -5 -6 -7 -8 -8 -9 -10 -10 -8 -2 4 12 12 11 9 9 11 7 1 1 3 4 6 8 11 13 13 14 11 8 8 8 6 8 9 11 11 10 10 10 10 10 11
-7 -5 -5 -6 -6 -5 -6 -6 -7 -9 -10 -10 -9 -10 -8 -6 4 11 13 11 10 9 10 4 -0 0 1 2 3 3 9 10 12 13 8 7 8 8 7 9 9 10 10 10 10 11 10 13 13
-5 -6 -6 -11 -7 -5 -6 -10 -15 -12 -11 -11 -12 -12 -11 -7 -3 8 13 12 10 9 9 9 0 -1 0 1 3 5 9 8 13 12 9 6 7 8 8 10 11 11 10 9 11 12 13 14 14
-4 -8 -6 -10 -13 -10 -6 -11 -15 -14 -10 -10 -11 -12 -12 -10 -6 3 12 13 11 9 10 11 2 1 1 2 3 4 6 6 11 12 9 5 6 8 8 11 12 9 9 11 12 13 13 14 14
-5 -5 -8 -9 -9 -9 -9 -9 -15 -9 -10 -11 -12 -13 -12 -11 -8 -5 7 12 12 9 11 12 9 4 4 5 5 7 7 7 8 8 7 6 6 7 7 11 13 10 11 12 12 13 14 13 13
-5 -6 -5 -8 -7 -4 -7 -9 -11 -12 -9 -8 -9 -9 -9 -10 -8 -6 -3 4 12 12 12 14 14 10 8 9 10 9 9 9 9 9 9 8 7 6 7 9 12 9 12 13 13 13 13 12 12
-1 -2 -3 -6 -4 -0 -5 -4 -5 -6 -5 -6 -9 -10 -9 -9 -8 -7 -4 -2 -3 -0 10 13 14 12 11 12 12 13 13 13 11 10 10 9 9 7 7 9 12 11 13 13 13 13 13 12 12
2 1 -1 -1 -1 -1 -1 -1 -3 -6 -7 -6 -5 -6 -8 -9 -8 -7 -5 -3 -2 -1 -6 -6 -4 6 10 7 13 14 14 14 14 12 11 9 10 10 7 7 10 11 10 13 13 13 13 12 12
3 -1 -1 -2 -1 0 -3 0 -4 -6 -6 -6 -7 -8 -8 -8 -7 -6 -6 -5 -3 -2 -3 -7 -7 -7 -1 3 11 11 10 13 10 11 12 12 10 11 9 7 8 9 10 12 13 13 13 13 12
2 -2 -0 0 1 1 1 2 -0 -3 -3 -5 -7 -7 -7 -7 -6 -7 -7 -8 -7 -5 -3 -6 -7 -6 -5 -2 -2 5 8 8 12 13 13 13 12 11 11 8 8 8 10 11 13 13 13 12 12
1 1 1 1 1 5 1 0 -1 -3 -2 -3 -5 -6 -6 -7 -7 -7 -7 -7 -8 -7 -3 -3 -7 -6 -6 -6 -0 2 3 6 13 14 14 14 13 10 11 10 8 8 11 11 12 13 12 12 12
2 3 6 6 5 3 -4 -2 -2 -7 -8 -7 -6 -7 -7 -6 -4 -4 -5 -4 -4 -4 -2 -7 -6 -6 -6 -6 1 6 1 4 10 13 14 14 13 7 8 11 9 8 11 12 12 14 13 13 12
-0 2 1 3 0 -1 -6 -2 -6 -8 -10 -10 -8 -7 -7 -5 -6 -4 -4 -4 -3 -1 -1 -0 -4 -3 5 4 5 11 12 13 12 13 13 14 13 4 7 11 10 9 11 12 14 14 14 13 12
-4 1 -2 -1 -3 1 -4 -4 -5 -7 -7 -7 -6 -6 -4 -2 -1 -1 -0 -0 -1 -2 -1 -2 -2 4 8 10 0 2 3 8 7 10 14 14 13 9 9 11 11 11 12 12 12 11 12 12 13
3 1 3 3 6 5 -2 -3 -4 -2 0 -1 -3 -3 -3 -2 -1 1 0 1 1 -1 -3 -5 -7 -7 3 9 12 10 5 4 4 7 8 12 13 11 13 12 13 13 12 12 13 13 13 13 13
3 5 6 6 5 6 3 -1 -4 -0 -0 -2 -4 -5 -4 -3 -2 -1 -2 -2 -1 1 2 2 3 -1 -3 -2 2 9 11 11 11 9 8 12 12 14 14 13 13 13 13 13 13 12 13 13 13
-1 3 3 5 8 8 7 4 -0 -1 -2 -3 -5 -7 -7 -6 -5 -5 -4 -4 -3 -2 2 3 5 6 7 3 1 -0 2 9 8 2 4 8 12 14 14 14 14 14 14 13 11 11 12 13 12
Wind_Speed
4 5 4 4 7 6 12 7 2 5 4 1 4 6 12 5 1 3 7 16 27 30 31 29 27 25 23 22 21 21 21 19 18 17 16 16 17 18 17 16 15 15 14 13 13 14 13 13 13
4 3 3 5 8 11 11 5 10 1 5 8 8 12 8 4 1 4 15 23 27 31 33 31 28 26 24 22 21 22 21 20 19 18 17 17 17 17 17 16 15 14 13 14 14 14 14 14 14
4 3 8 5 9 13 6 10 3 5 3 4 7 10 11 3 4 10 9 27 30 31 33 32 29 26 24 22 21 21 21 20 19 18 18 17 17 17 17 16 15 13 13 13 14 14 14 14 15
4 5 6 9 14 12 4 9 2 4 3 3 5 7 7 4 6 9 23 29 31 30 31 31 29 27 24 22 20 20 20 19 19 18 17 17 17 16 16 14 13 13 13 13 12 13 13 14 15
5 6 10 12 16 8 9 6 5 4 2 4 5 10 5 5 8 16 28 30 32 31 30 31 29 27 25 23 21 20 19 18 18 17 17 16 15 15 14 14 13 12 12 12 12 11 12 12 12
11 7 9 15 16 9 10 9 7 6 4 2 6 8 5 5 12 23 26 30 30 32 31 32 30 28 26 24 22 20 19 18 17 17 16 16 15 15 14 14 12 11 12 11 11 11 11 11 11
16 10 16 16 12 9 12 8 12 7 6 3 6 7 4 8 13 22 24 28 29 30 31 32 32 30 27 24 22 21 19 18 17 17 16 16 15 15 14 13 13 12 12 11 11 11 11 10 10
15 9 18 14 15 16 6 8 6 9 2 5 1 3 6 8 16 20 23 26 29 32 32 33 33 33 30 27 24 21 20 18 17 17 16 16 15 15 14 13 13 13 12 12 11 11 10 10 9
13 11 16 21 14 10 6 9 7 5 7 3 2 4 3 7 18 20 24 26 29 33 34 35 35 34 33 30 28 24 21 19 18 18 18 18 18 17 16 15 14 14 13 12 12 11 10 10 9
16 15 22 13 13 9 8 10 5 7 11 5 6 5 5 9 17 22 25 28 30 34 36 36 35 34 33 27 31 29 26 24 23 22 22 21 20 19 17 16 16 15 14 14 13 12 11 10 8
16 23 16 9 19 16 14 13 12 12 14 12 8 5 5 5 16 23 23 25 27 29 31 36 35 35 34 27 29 29 29 27 28 26 25 24 23 21 20 19 19 18 17 15 15 14 12 11 9
17 21 25 17 15 13 13 15 16 17 19 8 10 13 9 8 17 25 27 25 27 32 31 34 35 35 34 29 28 25 25 26 27 28 28 26 25 24 23 19 20 20 19 17 16 14 13 14 13
22 20 16 21 20 23 22 23 22 26 20 20 20 18 16 13 16 22 27 26 26 29 30 34 35 35 35 35 27 26 26 25 25 27 30 28 26 26 24 20 18 18 17 18 17 15 15 15 14
11 25 25 21 20 22 19 20 22 20 17 21 24 24 20 17 15 20 27 29 30 28 29 32 34 34 35 35 32 30 27 24 26 25 28 31 28 27 26 24 22 19 18 17 17 16 15 15 14
19 17 12 19 21 15 16 24 32 28 26 21 16 20 19 17 15 21 30 32 31 30 28 33 33 34 34 35 33 32 28 28 27 27 30 31 32 30 27 25 24 22 21 20 19 18 18 13 12
19 17 19 22 20 14 13 28 8 10 28 30 28 26 24 23 18 20 26 30 30 28 29 30 33 33 34 35 33 30 28 28 26 27 30 33 33 32 30 25 24 22 23 22 19 18 15 14 13
16 20 24 22 13 22 21 27 18 10 16 20 21 25 26 26 21 19 22 29 31 29 27 28 33 34 33 34 33 32 30 31 28 27 30 32 33 33 31 26 23 26 25 22 20 18 17 16 15
25 25 21 19 15 17 20 26 17 7 13 18 20 21 22 26 26 20 19 24 28 30 27 26 30 33 33 33 34 33 33 33 32 31 31 32 33 35 34 28 25 27 24 22 21 19 18 17 15
19 16 18 19 13 13 21 20 20 21 20 18 20 20 21 26 24 22 16 19 23 25 27 28 29 34 36 35 34 35 36 34 34 34 34 33 34 35 35 32 28 29 26 24 22 21 22 21 20
22 17 16 12 7 9 14 17 14 16 19 24 26 27 25 22 24 27 22 16 20 24 27 28 30 32 36 36 37 32 31 31 33 35 37 36 36 37 36 34 29 29 25 26 25 24 25 25 23
23 24 17 13 11 12 9 17 20 22 26 26 27 29 27 26 27 25 27 23 20 21 26 29 31 31 33 36 32 28 26 27 29 36 38 39 38 38 39 37 33 30 29 25 26 25 26 23 25
25 25 20 20 15 16 13 17 18 19 20 21 29 33 30 26 26 25 25 26 26 23 25 31 32 32 31 35 32 36 38 36 43 43 39 36 40 39 39 39 37 35 32 29 27 27 25 23 24
25 16 17 18 18 16 21 12 21 21 23 25 23 23 20 19 21 24 24 27 29 28 25 26 28 30 32 34 41 41 41 40 32 34 37 39 40 40 40 41 40 38 36 32 30 29 29 29 28
18 14 14 13 13 16 26 18 22 20 28 20 16 15 13 13 19 21 21 22 23 23 24 29 31 31 31 34 41 45 46 42 30 31 29 30 36 40 41 42 40 38 37 35 32 30 31 30 28
17 18 7 9 11 20 19 16 25 4 11 8 6 5 7 9 6 13 15 14 17 20 22 29 32 32 32 34 35 39 44 41 38 33 32 29 34 41 42 43 42 39 37 34 31 31 31 31 31
26 22 11 17 15 19 19 13 17 12 13 5 11 25 14 22 13 10 10 13 12 11 13 17 20 21 22 26 28 29 30 30 32 32 32 32 35 37 39 41 43 40 38 34 30 31 32 34 34
22 23 25 20 16 10 14 18 23 22 18 19 18 16 12 7 6 9 8 9 12 12 12 14 15 16 18 20 20 23 25 28 32 33 31 33 33 33 35 34 40 42 40 37 33 32 34 34 35
8 10 17 14 18 23 17 21 12 7 10 8 7 6 5 5 3 4 5 8 6 9 12 16 20 21 17 19 21 23 26 26 28 29 32 33 34 34 29 32 37 41 42 36 34 34 35 34 34
3 7 4 4 12 9 15 19 6 9 10 7 5 9 8 7 7 6 8 9 9 7 6 4 9 15 20 22 24 24 26 27 27 30 29 32 33 32 33 34 39 42 41 38 35 35 34 35 33
3 4 5 3 3 8 13 13 7 10 10 9 5 9 10 9 9 9 9 9 10 11 11 9 6 6 10 15 18 23 28 30 32 34 34 32 34 36 31 36 37 41 42 39 36 35 33 36 33
Wind_Direction
290 307 290 250 241 234 241 210 329 184 198 252 267 189 197 333 241 11 147 166 162 165 170 168 166 164 167 170 171 172 171 166 163 161 160 154 150 148 145 147 146 143 142 139 136 131 129 127 126
276 288 255 252 248 226 218 175 200 114 310 271 248 224 218 216 198 122 145 158 164 171 170 170 168 166 167 169 170 170 168 165 163 162 161 156 154 152 150 149 147 146 144 142 138 135 134 130 126
261 229 246 235 237 241 252 179 126 330 338 194 204 215 214 164 157 162 176 163 161 170 173 172 170 169 170 171 171 170 168 167 165 163 162 159 158 156 153 152 150 149 147 146 144 142 137 130 127
227 221 232 242 229 234 270 156 12 333 120 180 227 197 207 186 145 168 164 161 163 169 173 174 173 173 174 174 174 173 171 170 168 166 165 163 161 159 156 155 156 153 153 152 151 145 140 136 135
222 238 242 238 239 231 230 236 302 293 296 273 223 223 192 185 187 169 162 163 166 171 177 177 177 178 180 179 177 176 176 175 173 171 169 168 165 163 162 162 163 159 159 157 156 152 148 146 146
222 258 233 234 229 215 244 235 262 249 270 274 207 257 179 170 158 162 163 167 170 174 180 181 181 184 186 185 183 181 180 180 178 177 175 174 172 170 169 169 169 168 166 166 164 161 161 159 161
242 223 244 249 250 238 241 224 230 238 246 185 292 235 110 153 159 161 162 165 169 176 181 183 183 188 192 193 191 188 187 184 182 182 181 180 178 178 176 176 175 176 175 175 176 173 171 173 177
241 248 248 239 241 240 181 210 214 231 223 343 261 196 130 171 159 160 163 166 173 180 184 186 188 189 193 196 198 197 195 192 188 186 185 185 186 186 184 183 183 183 184 184 185 187 186 186 189
220 238 234 227 236 227 209 228 210 239 260 306 76 51 327 172 168 164 166 171 177 183 187 189 191 193 196 198 198 200 201 198 194 191 191 190 192 191 191 191 190 189 190 192 193 196 198 199 204
213 226 236 241 244 238 237 231 205 250 218 222 191 57 55 163 177 178 179 179 182 186 189 192 194 196 197 197 202 200 202 201 200 198 197 196 198 196 194 197 195 195 195 197 200 202 205 207 215
221 237 235 241 245 247 248 241 231 261 250 240 214 356 7 194 196 195 194 192 187 185 191 195 198 200 200 196 202 201 204 204 205 206 206 203 204 202 198 200 199 201 201 202 204 207 210 210 206
240 236 243 231 234 243 235 257 252 250 251 243 277 290 289 251 215 206 202 197 190 192 194 197 200 203 205 201 204 201 202 204 207 209 212 209 209 208 203 202 204 206 208 206 209 209 208 220 223
229 245 226 241 244 249 259 254 259 257 251 259 269 270 269 258 231 216 209 202 196 196 197 201 203 205 207 207 207 204 205 209 209 212 216 214 213 215 211 207 203 207 209 213 213 211 221 224 229
220 233 241 234 233 249 252 252 250 249 248 254 258 258 253 243 236 218 206 202 200 200 201 204 206 208 211 212 213 214 215 213 213 214 218 220 219 220 217 215 214 212 214 214 215 218 223 230 233
243 239 230 232 234 240 252 259 242 247 250 248 243 241 241 238 237 219 212 204 202 204 202 209 209 212 216 217 218 221 220 216 221 219 224 226 225 225 220 219 220 221 221 218 219 222 226 226 232
222 232 240 230 218 219 198 255 225 233 225 237 239 245 242 239 236 228 217 211 206 205 205 211 213 216 221 223 222 221 222 225 223 222 228 229 229 227 227 222 222 221 223 225 223 225 224 226 230
213 229 222 239 211 213 208 248 249 228 219 236 235 239 240 239 230 225 218 211 208 207 208 210 216 219 224 228 231 231 229 232 227 228 229 232 230 230 230 223 221 225 225 224 223 222 224 229 229
215 227 244 225 213 219 221 242 247 207 226 233 244 237 237 239 230 227 218 213 212 212 215 216 223 225 228 227 228 231 234 237 237 238 237 238 233 231 232 226 222 227 222 222 222 221 228 228 233
241 246 234 235 216 246 231 242 235 230 237 244 245 236 238 239 235 228 226 221 216 219 221 221 221 229 229 230 226 227 232 234 240 240 244 241 236 232 231 227 227 228 222 220 222 223 224 232 230
238 232 240 239 212 237 247 244 236 233 240 242 244 244 240 239 238 234 229 230 233 230 227 228 230 235 236 234 237 233 232 234 239 240 241 243 244 236 230 226 224 228 220 221 220 216 222 229 231
226 228 223 234 188 232 258 257 248 244 245 238 239 242 245 240 241 240 240 237 235 239 242 241 240 236 238 240 235 228 227 229 232 237 240 241 238 236 233 229 224 227 225 221 221 217 221 227 230
225 222 241 241 239 247 216 268 256 241 232 234 236 238 242 245 245 244 244 247 247 246 249 250 247 246 241 243 230 230 232 226 242 247 244 237 238 234 233 231 227 228 229 221 222 221 217 216 224
234 232 216 237 240 252 249 257 255 249 247 242 239 234 242 243 242 244 247 249 250 250 250 250 247 246 247 247 245 238 237 239 237 241 239 238 238 236 231 233 228 228 230 229 221 224 220 225 235
223 229 213 221 237 240 241 244 264 247 246 248 250 247 243 243 241 250 248 246 247 245 242 242 244 244 248 246 240 237 237 237 228 228 232 228 232 235 230 230 229 226 229 231 228 226 226 223 228
196 190 182 210 217 236 237 230 243 111 1 265 327 287 278 209 243 256 240 244 247 241 242 241 243 245 245 245 235 236 238 238 236 230 230 223 227 236 233 227 227 225 228 230 228 225 227 222 224
211 194 207 211 218 235 217 237 231 228 279 280 301 236 262 239 284 259 253 273 264 254 245 247 240 237 234 236 233 230 231 232 234 229 227 229 230 238 237 228 227 225 228 228 224 229 227 225 225
207 223 224 253 264 266 245 226 251 267 271 277 277 270 298 312 296 290 298 295 280 270 270 259 251 244 234 230 233 232 232 231 234 228 227 229 233 236 237 230 226 223 224 226 228 231 228 233 231
234 270 218 227 234 240 237 232 237 137 100 79 62 36 29 36 17 16 12 359 326 280 269 263 263 254 243 237 237 239 240 238 240 238 232 231 234 239 231 225 223 221 224 225 228 227 229 232 230
336 240 247 278 227 221 228 235 264 310 295 247 22 12 11 7 18 24 15 18 11 2 342 291 262 248 246 247 240 239 239 237 238 241 239 234 235 240 226 225 222 220 220 222 223 224 228 225 222
37 5 21 329 82 224 245 247 96 85 76 63 29 355 354 346 352 355 356 3 7 3 2 354 323 274 255 250 245 247 244 236 235 239 241 237 234 229 233 228 222 218 216 219 218 219 223 223 222
Height
1517 1517 1517 1518 1514 1500 1489 1487 1486 1485 1487 1491 1491 1487 1485 1488 1485 1491 1494 1497 1499 1503 1509 1514 1518 1522 1526 1530 1532 1535 1537 1539 1541 1544 1546 1548 1549 1550 1551 1553 1554 1555 1556 1557 1558 1559 1560 1561 1561
1517 1517 1518 1513 1505 1495 1481 1480 1485 1485 1489 1491 1492 1491 1490 1485 1491 1492 1494 1496 1500 1503 1508 1513 1518 1523 1527 1530 1533 1536 1538 1540 1542 1544 1547 1548 1550 1552 1553 1554 1555 1556 1557 1558 1559 1560 1560 1561 1562
1516 1516 1514 1502 1492 1490 1477 1481 1483 1487 1488 1489 1488 1489 1487 1486 1491 1492 1492 1494 1501 1504 1509 1513 1518 1522 1527 1530 1534 1536 1538 1541 1543 1545 1547 1549 1551 1553 1554 1555 1556 1557 1558 1559 1560 1561 1562 1562 1563
1516 1516 1513 1501 1489 1481 1482 1482 1487 1486 1487 1488 1486 1485 1488 1488 1490 1491 1491 1495 1500 1505 1510 1514 1519 1523 1527 1530 1533 1536 1539 1541 1544 1546 1548 1550 1552 1553 1555 1556 1557 1558 1559 1560 1562 1562 1563 1564 1565
1514 1510 1499 1494 1485 1483 1486 1486 1489 1487 1487 1487 1487 1479 1482 1486 1486 1488 1491 1495 1498 1504 1509 1514 1519 1523 1527 1530 1533 1536 1539 1541 1544 1546 1548 1550 1552 1554 1555 1556 1557 1559 1560 1561 1562 1563 1564 1566 1567
1509 1505 1497 1489 1481 1485 1486 1487 1488 1487 1486 1487 1485 1482 1482 1485 1486 1488 1491 1496 1500 1502 1507 1512 1518 1523 1527 1530 1532 1535 1538 1541 1543 1546 1548 1550 1552 1554 1556 1557 1558 1559 1560 1561 1562 1563 1565 1566 1567
1504 1497 1489 1482 1479 1481 1483 1486 1485 1483 1483 1483 1487 1482 1485 1487 1488 1490 1492 1497 1500 1504 1507 1512 1516 1521 1526 1530 1532 1535 1538 1541 1543 1546 1548 1550 1552 1554 1555 1557 1559 1560 1561 1562 1563 1563 1564 1565 1566
1503 1496 1488 1484 1483 1483 1483 1486 1485 1484 1481 1486 1485 1477 1481 1488 1488 1491 1494 1497 1500 1502 1507 1511 1515 1520 1524 1528 1532 1535 1537 1540 1542 1545 1548 1550 1552 1554 1555 1557 1558 1560 1561 1562 1563 1564 1564 1565 1566
1501 1494 1483 1480 1482 1480 1483 1484 1485 1485 1484 1484 1485 1486 1486 1486 1487 1490 1493 1495 1498 1501 1505 1509 1513 1518 1522 1526 1530 1534 1537 1539 1541 1544 1546 1549 1551 1553 1555 1556 1558 1559 1561 1562 1563 1564 1564 1565 1565
1494 1485 1476 1474 1478 1481 1481 1482 1482 1484 1480 1481 1483 1486 1485 1485 1487 1490 1491 1492 1494 1497 1501 1506 1511 1515 1520 1524 1527 1531 1534 1537 1539 1541 1544 1547 1549 1551 1553 1555 1557 1558 1560 1561 1562 1563 1564 1565 1566
1486 1475 1474 1481 1484 1482 1480 1480 1481 1481 1477 1477 1478 1482 1484 1485 1487 1489 1492 1494 1495 1497 1502 1504 1508 1513 1517 1522 1524 1528 1531 1534 1536 1538 1541 1544 1546 1549 1551 1553 1554 1556 1557 1559 1561 1562 1563 1564 1566
1482 1478 1478 1479 1482 1481 1479 1480 1476 1478 1477 1477 1479 1481 1481 1483 1484 1485 1488 1492 1493 1495 1499 1502 1505 1509 1513 1517 1521 1525 1529 1530 1532 1534 1537 1540 1543 1545 1548 1550 1552 1553 1555 1557 1558 1560 1562 1562 1563
1476 1475 1475 1480 1479 1477 1478 1475 1475 1471 1475 1476 1476 1477 1478 1478 1479 1481 1485 1489 1492 1494 1496 1497 1501 1506 1509 1513 1517 1521 1524 1527 1530 1531 1533 1536 1539 1541 1544 1547 1550 1551 1553 1554 1556 1558 1559 1560 1561
1468 1472 1472 1475 1476 1476 1475 1473 1474 1466 1471 1472 1472 1471 1472 1474 1474 1476 1480 1483 1487 1490 1492 1494 1497 1502 1505 1509 1512 1515 1519 1523 1525 1528 1529 1532 1535 1537 1540 1543 1545 1548 1550 1552 1553 1555 1556 1557 1558
1470 1471 1468 1468 1470 1472 1475 1466 1456 1465 1466 1466 1465 1465 1467 1468 1470 1471 1473 1476 1481 1484 1489 1489 1493 1497 1501 1505 1508 1511 1514 1518 1520 1523 1525 1527 1531 1533 1537 1539 1541 1544 1546 1548 1550 1551 1553 1555 1555
1466 1468 1462 1453 1462 1469 1472 1448 1448 1450 1457 1456 1460 1461 1461 1462 1464 1466 1469 1472 1476 1481 1484 1486 1489 1493 1497 1500 1503 1507 1510 1512 1515 1518 1519 1522 1526 1529 1532 1534 1537 1539 1541 1544 1546 1548 1550 1552 1554
1455 1444 1449 1449 1449 1456 1461 1439 1443 1446 1453 1451 1451 1453 1454 1456 1459 1461 1464 1467 1471 1476 1480 1482 1484 1488 1492 1496 1500 1502 1504 1506 1509 1511 1514 1516 1520 1524 1527 1530 1532 1534 1537 1539 1542 1544 1547 1548 1549
1436 1442 1437 1437 1442 1450 1447 1442 1441 1448 1447 1446 1445 1445 1447 1449 1452 1456 1458 1462 1467 1472 1476 1479 1480 1483 1486 1489 1493 1496 1498 1500 1503 1505 1507 1511 1514 1517 1520 1524 1527 1528 1532 1534 1537 1540 1542 1544 1545
1427 1433 1436 1434 1441 1448 1442 1438 1437 1439 1444 1443 1442 1442 1443 1444 1448 1451 1454 1456 1461 1466 1470 1472 1474 1476 1479 1481 1484 1488 1489 1493 1496 1498 1501 1503 1507 1510 1513 1517 1520 1522 1525 1529 1531 1535 1536 1537 1540
1439 1441 1437 1435 1440 1449 1437 1433 1432 1433 1436 1440 1438 1437 1437 1441 1443 1445 1449 1451 1452 1457 1461 1465 1467 1470 1472 1475 1478 1481 1485 1487 1489 1491 1492 1495 1499 1502 1505 1510 1513 1515 1520 1522 1524 1527 1529 1532 1534
1439 1436 1436 1442 1440 1442 1443 1438 1430 1426 1429 1432 1432 1432 1433 1435 1438 1441 1442 1446 1449 1450 1452 1456 1459 1463 1465 1467 1472 1475 1478 1480 1482 1481 1483 1487 1490 1493 1497 1501 1506 1509 1512 1516 1519 1521 1523 1526 1529
1433 1433 1438 1437 1443 1440 1430 1428 1415 1410 1413 1418 1421 1424 1428 1432 1435 1437 1438 1439 1441 1443 1446 1448 1451 1455 1457 1459 1461 1462 1463 1466 1468 1473 1476 1478 1481 1485 1489 1493 1497 1500 1504 1508 1512 1514 1517 1522 1523
1422 1427 1435 1440 1438 1440 1431 1432 1406 1405 1405 1403 1408 1417 1423 1427 1430 1432 1433 1434 1435 1438 1440 1441 1444 1446 1448 1449 1450 1453 1454 1457 1463 1464 1467 1469 1472 1476 1480 1484 1488 1493 1497 1500 1504 1507 1511 1514 1518
1427 1432 1435 1439 1438 1442 1420 1427 1395 1401 1393 1398 1402 1410 1417 1422 1426 1426 1427 1428 1430 1432 1433 1434 1436 1438 1440 1440 1440 1441 1444 1448 1453 1456 1457 1460 1463 1466 1471 1475 1479 1484 1489 1493 1497 1500 1503 1507 1511
1424 1432 1444 1448 1441 1423 1410 1423 1397 1389 1392 1394 1403 1408 1415 1419 1423 1421 1421 1423 1424 1424 1425 1426 1428 1429 1430 1430 1431 1432 1435 1439 1442 1447 1449 1452 1453 1454 1460 1466 1470 1475 1481 1486 1490 1495 1498 1500 1503
1416 1417 1415 1427 1416 1408 1407 1410 1387 1393 1397 1398 1405 1410 1413 1416 1416 1416 1417 1418 1419 1419 1420 1421 1421 1422 1423 1423 1424 1426 1429 1431 1433 1438 1441 1442 1443 1445 1451 1457 1463 1469 1473 1478 1483 1488 1491 1493 1496
1412 1414 1407 1416 1405 1408 1393 1388 1389 1390 1393 1397 1403 1406 1410 1413 1415 1415 1414 1413 1413 1414 1415 1414 1415 1416 1418 1418 1418 1420 1421 1423 1424 1427 1431 1434 1437 1437 1442 1449 1455 1460 1466 1470 1475 1479 1483 1487 1490
1426 1417 1420 1419 1427 1423 1399 1389 1387 1389 1399 1406 1410 1412 1413 1413 1414 1413 1412 1410 1409 1407 1407 1407 1409 1410 1412 1413 1413 1414 1415 1416 1418 1419 1421 1425 1428 1431 1437 1443 1446 1453 1458 1462 1468 1472 1477 1480 1483
1423 1419 1431 1421 1412 1411 1403 1387 1381 1394 1396 1397 1408 1411 1412 1413 1412 1411 1410 1409 1408 1406 1404 1402 1403 1403 1405 1406 1407 1408 1409 1410 1412 1413 1415 1418 1420 1426 1430 1436 1440 1444 1449 1454 1460 1465 1470 1473 1477
1435 1440 1439 1432 1415 1416 1409 1395 1401 1406 1407 1409 1412 1412 1412 1412 1410 1409 1409 1407 1406 1404 1401 1399 1399 1398 1399 1400 1400 1400 1400 1401 1402 1404 1406 1410 1413 1418 1425 1429 1433 1437 1441 1445 1452 1458 1462 1466 1470